Regras e cupons Uvas & Vinhos 5 Anos

REGRAS PARA PARTICIPAR DO SORTEIO DE ANIVERSÁRIO DE 5 ANOS UVAS & VINHOS:

 

DADOS DE IDENTIFICAÇÃO DA EMPRESA PROMOTORA

Razão Social: Tiago Orbach Vinhos ME

Nome Fantasia: Uvas & Vinhos

CNPJ: 24.301.778/0001-07

Endereço: Rua Paulo Ceriotti, 65 - Bairro Santa Rita - Bento Gonçalves/RS

Telefone: (54) 3702-4398

Whats: (54) 99602-4398

E-mail: contato@uvasevinhos.com

Site: www.uvasevinhos.com

REGULAMENTO:

1- A cada R$ 200,00 em compras no site Uvas & Vinhos, o cliente ganha 1 cupom para concorrer a 2 caixas comemorativas dos 5 Anos do site;

2- Não será contabilizado o valor do frete do pedido para ganhar o cupom;

3- Todos os pedidos acima de R$ 200,00 (valor do pedido sem o valor do frete) que forem aprovados do dia 01 de Abril até dia 30 de Abril de 2021, participarão do sorteio;

4- Serão sorteadas 2 Caixas contendo: 3 vinhos tintos, 2 vinhos brancos e 1 espumante, de diferentes Vinícolas e produtos que estão disponibilizados no site Uvas & Vinhos;

5- A caixa 1 contém: 1 Espumante Casa Valduga 130 Brut 750ml + 1 Vinho Torcello Chardonnay Branco Seco 750ml + 1 Vinho Capella dos Campos Sauvignon Blanc Nobre Branco Seco 750ml + 1 Vinho Valmarino XXIV Cabernet Franc Safra 2019 Tinto Seco 750ml + 1 Vinho Dal Pizzol Cabernet Sauvignon Tinto Seco 750ml + 1 Vinho Don Guerino Reserva Merlot Tinto Seco 750ml. Valor total de produtos da caixa 1: R$ 624,40

 5.1- A caixa 2 contém: 1 Espumante Peterlongo Privillege Extra Brut 750ml + 1 Vinho Garibaldi Acordes Reserva Chardonnay Branco Seco 750ml + 1 Vinho Pizzato Reserva Semillon Branco Seco 750ml + 1 Vinho Almaúnica Superpremium Cabernet Franc Tinto Seco 750ml + 1 Vinho Dom Bernardo Bordalês Tinto Seco 750ml + 1 Vinho Aurora Gran Reserva Tannat Tinto Seco 750ml. Valor total de produtos da caixa 2: R$ 619,40   

5.2- Soma total dos prêmios: R$ 1.243,80                       

6- Será somente 1 ganhador para cada Caixa. Caso o mesmo cliente ganhar as 2, será feito novo sorteio para dar oportunidade para outro cliente;

7- Não será possível escolher os produtos, nem a caixa que será sorteada;

8- Os ganhadores não terão nenhum custo com o frete, o mesmo será enviado pelo site Uvas & Vinhos por transportadora parceira;

9- O sorteio será realizado no dia 03 de Maio de 2021 através do site www.sorteador.com.br;

10- A divulgação dos ganhadores será feita por E-mail. Contataremos os 2 ganhadores pelo Whats ou telefone;

11- Participam desta promoção quaisquer pessoas físicas residentes em todo o território nacional, que cumprirem com os termos e condições estabelecidas neste regulamento.

12- Todos os consumidores deverão Ler e aceitar este Regulamento, por tal ato submetendo-se de forma irretratável e irrevogável a todos os respectivos termos e condições.

13- O site Uvas & Vinhos reserva-se no direito de desclassificar e excluir os participantes cuja conduta demonstre estar manipulando dolosamente a operação do Concurso, bem como os participantes que tentarem fraudar ou burlar as regras estabelecidas neste Regulamento.

14- O site Uvas & Vinhos se reserva no direito de desclassificar as inscrições que não preencham os requisitos previstos nos itens anteriores ou em qualquer outra disposição deste Regulamento, independentemente de qualquer comunicação prévia.

15- O(A) Consumidor(a) contemplado(a) no referido evento, pelo período de 01 (um) ano contado a partir das datas das apurações, autoriza o uso de seu nome, imagem, som e voz, com vistas à divulgação do resultado sem nenhum ônus à pessoa jurídica promotora e aderentes.

16- Os pedidos relacionados na tabela abaixo qua ainda não possuem nota fiscal também estarão participando, pois o pedido somente não passou no faturamento, mas já foram aprovados no financeiro. Por isso, os mesmos estão confirmados para o sorteio.

17- É expressamente proibida a participação de pessoas menores de 18 anos nesta promoção, conforme Lei 13.106/2015 ;

18- Para maiores informações, entrar em contato pelos nossos canais de comunicação.

Segue o link da nossa página do Facebook, para conferir o sorteio: https://www.facebook.com/uvasevinhos/videos/149750660371176

Os ganhadores foram:

CAIXA 1: Ivo Cardoso - cupom 36

CAIXA 2: Gabriela Leonhardt - cupom 57

Agradecemos a participação de todos!

E parabéns aos ganhadores!

TABELA DE PARTICIPAÇÃO E CUPONS DO SORTEIO DOS 5 ANOS UVAS & VINHOS
DATA COMPRA PEDIDO NOTA CUPONS
01/04/2021 2523 5071 1-2-3-4
01/04/2021 2524 5049 5
02/04/2021 2529 5048 6
03/04/2021 2530 5058 7-8
03/04/2021 2532 5043 9
03/04/2021 2533 5054 10
04/04/2021 2536 5042 11
04/04/2021 2540 5060 12
04/04/2021 2541 5061 13
05/04/2021 2543 5143 14-15
05/04/2021 2544 5093 16
05/04/2021 2545 5051 17
06/04/2021 2547 5069 18
06/04/2021 2548 5095 19
08/04/2021 2554 5079 20
08/04/2021 2557 5135 21
08/04/2021 DIRETO 5081 22
09/04/2021 2560 5121 23-24-25
09/04/2021 2562 5181 26
09/04/2021 2563 5133 27-28-29-30-31-32-33-34-35-36
09/04/2021 2564 5114 37
09/04/2021 2565 5153 38-39-40-41
09/04/2021 2568 5171 42-43
10/04/2021 2570 5116 44
10/04/2021 2572 5140 45
10/04/2021 2573 5118 46
10/04/2021 2574 5130 47
10/04/2021 2575 5142 48
10/04/2021 2578 5141 49-50
11/04/2021 2580 5123 51-52-53-54
11/04/2021 2581 5120 55
12/04/2021 2583 5132 56
12/04/2021 2584 5222 57
12/04/2021 2585 5134 58-59-60-61
08/04/2021 DIRETO 5081 62
12/04/2021 2586 5188 63
14/04/2021 2588 5239 64-65-66
14/04/2021 2589 5167 67
14/04/2021 2590 5177 68-69
14/04/2021 2591 5170 70
15/04/2021 2592 5182 71
15/04/2021 2595 5183 72
15/04/2021 2598 5223 73
15/04/2021 2599 5180 74
15/04/2021 2600 5254 75-76
15/04/2021 2603 5187 77-78-79
16/04/2021 2610 5224 80-81-82-83
16/04/2021 2605/2606 5216 84
16/04/2021 2612 5217 89-90
16/04/2021 2613 5227 92
16/04/2021 2617 5219 93
17/04/2021 2619 5279 94-95
17/04/2021 2620 5235 96-97-98-99-100-101-102-103
17/04/2021 2621 5258 104
17/04/2021 2622 5225 105
17/04/2021 2623 5255 106-107-108-109-110-111-112-113
18/04/2021 2625 5251 114
18/04/2021 2626 5337 115-116
18/04/2021 2629 5218 117-118
05/04/2021 2546 5242 119-120-121-122
19/04/2021 2632 5240 123-124-125-126
19/04/2021 2634 5241 127-128
19/04/2021 2635 5238 131-132-133-134-135
19/04/2021 2637 5395 211-212-213
19/04/2021 2638 5266 137-138
19/04/2021 2639 5252 139
20/04/2021 2641 5259 140
20/04/2021 2642 5268 141
20/04/2021 2643 5270 142-143
20/04/2021 2644 5278 144
20/04/2021 2645 5269 145
21/04/2021 2647 5276 146-147-148-149
21/04/2021 2649 5284 150
21/04/2021 2652 5287 151
21/04/2021 2653 5288 152-153-154
21/04/2021 2654 5322 129-130
21/04/2021 2656 5260 155-156-157
21/04/2021 2657 5286 91
21/04/2021 2659 5376 158
22/04/2021 2660 5267 159-160-161-162
22/04/2021 2661 5381 163-164
22/04/2021 2662 5364 165-166
22/04/2021 2663 5335 136
22/04/2021 2665 5341 167-168-169-170-171-172-173
23/04/2021 2666 5296 174
23/04/2021 2667 5320 175
24/04/2021 2671 5319 176-177
24/04/2021 2672 5321 178-179
25/04/2021 2673 5290 180-181-182-183
25/04/2021 2674 5293 184
25/04/2021 2675 5294 185-186
25/04/2021 2677 5338 187
25/04/2021 2678 5323 188
25/04/2021 2679 5295 189
26/04/2021 2680 5339 190-191
26/04/2021 2681 5336 192-193-194-195-196
26/04/202 2682 5344 197-198-199-200-201-202-203-204
26/04/2021 2684 5377 205-206-207
26/04/2021 2685 5420 208-209-210
26/04/2021 2686 5334 214
27/04/2021 2687   257-258-259
27/04/2021 2689 5421 215
27/04/2021 2690 5356 216
27/04/2021 2691 5358 217-218
27/04/2021 2692 5345 219-220
27/04/2021 2693 5392 221
27/04/2021 2694 5391 234-235-236-237-238-239
27/04/2021 2697   222
27/04/2021 2698 5362 223
27/04/2021 2699 5393 85
27/04/2021 2700 5361 224
28/04/2021 2701 5371 225
28/04/2021 2704 5396 226-227-228
28/04/2021 2706 5382 229-230-231
28/04/2021 2708 5423 256
29/04/2021 2709 5397 232
29/04/2021 2710 5424 233
29/04/2021 2712 5444 86
29/04/2021 2713 5387 87
29/04/2021 2717   261/262/263
29/04/2021 2718 5389 88
29/04/2021 2720 5425 237
29/04/2021 2722 5394 260
30/04/2021 2723 5427 240-241
30/04/2021 2724   242-243-244-245-246
30/04/2021 2726   247-248-249-250
30/04/2021 2728   251
30/04/2021 2729   252-253-254
30/04/2021 2730 5402 255